This demonstration page uses our WeatherBlox Daily Observations layout. Learn more.

Left ArrowRight Arrow

Hourly Observations for December 6, 2022

Temp ( °F °C ) Dew Point ( °F °C ) Humidity (%) Winds ( mph kmh ) Pressure ( in mb ) Visibility ( mi km ) Precip ( " mm )
12:05 am 00:05 Cloudy with Light Snow 13 -10.6 9 -12.8 84 84 WSW 9 15 30.07 1018 3 4 0.01 0.13
12:39 am 00:39 Cloudy with Light Snow 9 -12.8 3 -16.1 76 76 NNE 17 28 30.12 1020 2 3 0.01 0.25
12:53 am 00:53 Cloudy with Light Snow 8 -13.3 2 -16.7 75 75 NNE 15 24 30.04 1017 3 4 0.01 0.25
1:04 am 01:04 Cloudy with Light Snow 8 -13.3 2 -16.7 75 75 NNE 9 15 30.16 1021 3 5 0.01 0.13
1:53 am 01:53 Cloudy with Light Snow 7 -13.9 2 -16.7 79 79 NE 5 7 30.06 1018 3 5 0.01 0.13
2:53 am 02:53 Cloudy 6 -14.4 -1 -18.3 72 72 NNE 6 9 30.09 1019 10 16 0.01 0.13
3:53 am 03:53 Cloudy with Light Snow 5 -15 -1 -18.3 76 76 NNW 6 9 30.10 1019 5 8 0.01 0.13
4:53 am 04:53 Cloudy 3 -16.1 -2 -18.9 79 79 NE 9 15 30.09 1019 10 16 0.01 0.13
5:53 am 05:53 Cloudy 3 -16.1 -3 -19.4 76 76 NE 10 17 30.09 1019 10 16 0.00 0.00
6:53 am 06:53 Cloudy 2 -16.7 -4 -20 75 75 NE 13 20 30.12 1020 10 16 0.00 0.00
7:53 am 07:53 Cloudy with Light Snow 0 -17.8 -6 -21.1 75 75 ENE 10 17 30.13 1020 6 10 0.01 0.13
8:53 am 08:53 Cloudy with Light Snow 0 -17.8 -5 -20.6 79 79 E 10 17 30.16 1021 3 4 0.01 0.13
9:04 am 09:04 Cloudy with Light Snow 0 -17.8 -5 -20.6 79 79 E 10 17 30.31 1027 1 2 0.01 0.13
9:14 am 09:14 Cloudy with Light Snow 0 -17.8 -5 -20.6 79 79 E 13 20 30.30 1026 2 3 0.01 0.13
9:26 am 09:26 Cloudy with Light Snow 0 -17.8 -5 -20.6 79 79 E 12 19 30.31 1027 3 4 0.01 0.13
9:35 am 09:35 Cloudy with Haze 0 -17.8 -6 -21.1 75 75 ENE 14 22 30.31 1027 5 8 0.01 0.13
9:53 am 09:53 Cloudy 0 -17.8 -5 -20.6 79 79 E 12 19 30.18 1022 10 16 0.01 0.13
10:53 am 10:53 Cloudy with Light Snow -1 -18.3 -7 -21.7 74 74 ENE 14 22 30.19 1023 6 10 0.01 0.13
11:53 am 11:53 Cloudy -2 -18.9 -8 -22.2 75 75 ENE 15 24 30.19 1022 9 14 0.01 0.13
12:40 pm 12:40 Windy with Snow Likely -3 -19.4 -9 -22.8 74 74 ENE 20 31 30.33 1027 3 4 0.01 0.13
12:53 pm 12:53 Cloudy with Light Snow -3 -19.4 -9 -22.8 74 74 ENE 16 26 30.19 1022 2 3 0.01 0.13
1:00 pm 13:00 Cloudy with Light Snow -3 -19.4 -9 -22.8 74 74 ENE 16 26 30.33 1027 1 2 0.01 0.13
1:10 pm 13:10 Cloudy with Light Snow -3 -19.4 -9 -22.8 74 74 ENE 16 26 30.33 1027 1 2 0.01 0.13
1:19 pm 13:19 Partly Cloudy with Snow -4 -20 -9 -22.8 78 78 ENE 16 26 30.35 1028 1 1 0.01 0.13
1:45 pm 13:45 Partly Cloudy with Isolated Snow Showers -4 -20 -9 -22.8 78 78 ENE 17 28 30.35 1028 1 1 0.01 0.25
1:53 pm 13:53 Partly Cloudy with Isolated Snow Showers -4 -20 -9 -22.8 78 78 NE 16 26 30.20 1023 1 1 0.01 0.25
2:17 pm 14:17 Partly Cloudy with Isolated Snow Showers -4 -20 -9 -22.8 78 78 ENE 16 26 30.35 1028 1 2 0.02 0.51
2:53 pm 14:53 Cloudy with Light Snow -4 -20 -9 -22.8 78 78 ENE 16 26 30.20 1023 1 2 0.02 0.51
3:03 pm 15:03 Cloudy with Light Snow -4 -20 -10 -23.3 75 75 ENE 17 28 30.34 1027 2 3 0.01 0.13
3:26 pm 15:26 Cloudy with Light Snow -5 -20.6 -10 -23.3 79 79 E 17 28 30.34 1027 1 2 0.01 0.13
3:53 pm 15:53 Windy with Snow Likely -5 -20.6 -10 -23.3 79 79 ENE 20 31 30.21 1023 1 2 0.01 0.13
4:03 pm 16:03 Cloudy with Light Snow -5 -20.6 -10 -23.3 79 79 E 17 28 30.36 1028 2 3 0.01 0.13
4:12 pm 16:12 Cloudy with Light Snow -5 -20.6 -10 -23.3 79 79 E 16 26 30.36 1028 2 3 0.01 0.13
4:24 pm 16:24 Cloudy with Light Snow -5 -20.6 -10 -23.3 79 79 E 17 28 30.36 1028 2 2 0.01 0.13
4:46 pm 16:46 Cloudy with Light Snow -5 -20.6 -10 -23.3 79 79 E 17 28 30.37 1028 2 3 0.01 0.13
4:53 pm 16:53 Cloudy with Light Snow -5 -20.6 -11 -23.9 75 75 E 18 30 30.22 1023 2 3 0.01 0.13
5:00 pm 17:00 Cloudy with Light Snow -5 -20.6 -11 -23.9 75 75 E 16 26 30.37 1028 2 3 0.01 0.13
5:11 pm 17:11 Cloudy with Light Snow -5 -20.6 -11 -23.9 75 75 E 17 28 30.37 1028 1 2 0.01 0.25
5:22 pm 17:22 Cloudy with Light Snow -6 -21.1 -11 -23.9 78 78 E 18 30 30.37 1029 2 3 0.02 0.51
5:29 pm 17:29 Cloudy with Light Snow -6 -21.1 -11 -23.9 78 78 E 18 30 30.37 1029 3 4 0.02 0.51
5:37 pm 17:37 Cloudy with Light Snow -6 -21.1 -11 -23.9 78 78 E 15 24 30.37 1029 3 5 0.02 0.51
5:53 pm 17:53 Cloudy with Light Snow -6 -21.1 -11 -23.9 78 78 E 16 26 30.22 1023 2 3 0.02 0.51
6:13 pm 18:13 Cloudy with Light Snow -6 -21.1 -11 -23.9 78 78 E 16 26 30.37 1028 1 2 0.01 0.13
6:26 pm 18:26 Cloudy with Light Snow -6 -21.1 -11 -23.9 78 78 E 17 28 30.37 1029 2 3 0.01 0.13
6:38 pm 18:38 Cloudy with Light Snow -6 -21.1 -11 -23.9 78 78 E 16 26 30.37 1029 1 2 0.01 0.25
6:50 pm 18:50 Cloudy with Light Snow -6 -21 -11 -24 77 77 E 17 28 30.37 1029 2 3 0.01 0.25
6:53 pm 18:53 Cloudy with Light Snow -6 -21.1 -11 -23.9 78 78 E 17 28 30.23 1024 2 3 0.01 0.25
7:00 pm 19:00 Cloudy with Light Snow -6 -21.1 -11 -23.9 78 78 E 17 28 30.39 1029 3 5 0.01 0.13
7:53 pm 19:53 Cloudy -6 -21.1 -12 -24.4 75 75 ENE 17 28 30.24 1024 10 16 0.01 0.13
8:53 pm 20:53 Cloudy with Light Snow -6 -21.1 -12 -24.4 75 75 ENE 18 30 30.24 1024 5 8 0.01 0.13
9:53 pm 21:53 Cloudy -6 -21.1 -11 -23.9 78 78 E 15 24 30.25 1024 10 16 0.01 0.13
10:53 pm 22:53 Cloudy -5 -20.6 -10 -23.3 79 79 ENE 12 19 30.24 1024 10 16 0.00 0.00
11:53 pm 23:53 Cloudy -5 -20.6 -10 -23.3 79 79 E 9 15 30.22 1024 10 16 0.00 0.00

Powered by AerisWeather